User: anonymous   Login
Location: Newark
(49.3500°N, 0.2500°E)
Time: 11:18:05
(UTC+00:00)
Language:

Hubble Space Telescope - Orbit

View from above orbital plane
View from above orbital plane
View from above satellite
View from above satellite

Ground track
Ground track

The orbit data is extracted from the following two-line orbital elements,

1 20580U 90037B   19287.92744387 +.00000421 +00000-0 +14646-4 0  9997
2 20580 028.4686 150.0790 0002555 319.5193 172.2405 15.09280877418686
Epoch (UTC): 14 October 2019 22:15:31
Eccentricity: 0.0002555
inclination: 28.4686°
perigee height: 536 km
apogee height: 540 km
right ascension of ascending node: 150.0790°
argument of perigee: 319.5193°
revolutions per day: 15.09280877
mean anomaly at epoch: 172.2405°
orbit number at epoch: 41868

The dashed part of the orbit path shows where the satellite is in the earth's shadow,  

DLR